OK2ILA-1 Weather Reports


time (UTC)temp
F
wind
direction
speed
knots
gust
knots
rain 1hr
in
rain 24hr
in
rain mn
in
humidity
%
barometer
mb
20260504130332 77 219 10.4 14.8 0.00 0.00 0.00 100 1014.9
20260504110325 75 182 13.9 18.2 0.00 0.00 0.00 100 1015.7
20260504100322 75 153 10.4 16.5 0.00 0.00 0.00 100 1016.3
20260504081516 70 127 9.6 16.5 0.00 0.00 0.00 100 1016.8
20260504080315 70 208 10.4 15.6 0.00 0.00 0.00 100 1016.8
20260504070312 68 175 8.7 18.2 0.00 0.00 0.00 100 1016.7
20260504050305 58 201 2.6 5.2 0.00 0.00 0.00 100 1016.5
20260504045104 57 198 0.9 4.3 0.00 0.00 0.00 100 1016.7
20260504043904 56 157 0.0 7.0 0.00 0.00 0.00 100 1016.7
20260504042703 56 175 0.9 3.5 0.00 0.00 0.00 100 1016.7
20260504041502 55 194 0.0 0.0 0.00 0.00 0.00 100 1016.5
20260504040301 55 168 0.0 1.7 0.00 0.00 0.00 100 1016.7
20260504035101 55 198 0.9 2.6 0.00 0.00 0.00 100 1016.5
20260504033900 55 217 0.0 3.5 0.00 0.00 0.00 100 1016.4
20260504032659 56 300 2.6 2.6 0.00 0.00 0.00 100 1016.3
20260504031459 56 191 0.9 6.1 0.00 0.00 0.00 100 1016.3
20260504030258 57 196 5.2 8.7 0.00 0.00 0.00 100 1016.3
20260504025057 57 182 2.6 9.6 0.00 0.00 0.00 100 1016.2
20260504023857 57 154 7.0 10.4 0.00 0.00 0.00 100 1016.1
20260504022656 57 188 8.7 9.6 0.00 0.00 0.00 100 1016.0
20260504021455 57 185 3.5 7.8 0.00 0.00 0.00 100 1016.1
20260504020255 57 220 3.5 6.1 0.00 0.00 0.00 100 1016.1
20260504015054 57 226 2.6 6.1 0.00 0.00 0.00 100 1016.0
20260504013853 57 227 4.3 7.0 0.00 0.00 0.00 100 1016.0
20260504012653 57 192 3.5 7.0 0.00 0.00 0.00 100 1016.1
20260504011452 57 234 4.3 8.7 0.00 0.00 0.00 100 1016.1
20260504010251 58 285 0.0 6.1 0.00 0.00 0.00 100 1016.1
20260504005051 57 223 4.3 8.7 0.00 0.00 0.00 100 1016.2
20260504003850 58 253 3.5 7.8 0.00 0.00 0.00 100 1016.2
20260504002649 58 239 6.1 7.8 0.00 0.00 0.00 100 1016.2
20260504001449 58 275 1.7 3.5 0.00 0.00 0.00 100 1016.3
20260504000248 58 253 3.5 3.5 0.00 0.00 0.00 100 1016.3
20260503235047 58 198 0.9 6.1 0.00 0.00 0.00 100 1016.2
20260503233847 58 187 5.2 6.1 0.00 0.00 0.00 100 1016.3
20260503232646 59 201 2.6 7.8 0.00 0.00 0.00 100 1016.4
20260503231445 59 180 4.3 8.7 0.00 0.00 0.00 100 1016.5
20260503230244 58 187 5.2 8.7 0.00 0.00 0.00 100 1016.5
20260503225044 58 196 3.5 9.6 0.00 0.00 0.00 100 1016.7
20260503223843 59 191 5.2 11.3 0.00 0.00 0.00 100 1016.8
20260503222642 59 171 4.3 7.0 0.00 0.00 0.00 100 1016.8
20260503221442 59 192 6.1 8.7 0.00 0.00 0.00 100 1016.8
20260503220241 59 180 3.5 8.7 0.00 0.00 0.00 100 1016.9
20260503215040 59 212 4.3 7.8 0.00 0.00 0.00 100 1017.0
20260503213840 59 222 4.3 11.3 0.00 0.00 0.00 100 1017.1
20260503212639 59 178 5.2 7.8 0.00 0.00 0.00 100 1017.1
20260503211438 59 203 3.5 7.8 0.00 0.00 0.00 100 1017.2
20260503210238 58 187 4.3 7.8 0.00 0.00 0.00 100 1017.2
20260503205037 58 136 2.6 7.8 0.00 0.00 0.00 100 1017.2
20260503203836 59 175 2.6 2.6 0.00 0.00 0.00 100 1017.3
20260503202636 59 196 2.6 2.6 0.00 0.00 0.00 100 1017.3
20260503201435 60 192 0.9 3.5 0.00 0.00 0.00 100 1017.4
20260503200234 60 181 2.6 5.2 0.00 0.00 0.00 100 1017.4
20260503195034 60 195 1.7 2.6 0.00 0.00 0.00 100 1017.4
20260503193833 61 170 0.9 3.5 0.00 0.00 0.00 100 1017.5
20260503192632 61 168 1.7 3.5 0.00 0.00 0.00 100 1017.5
20260503191432 62 158 0.9 1.7 0.00 0.00 0.00 100 1017.4
20260503190231 62 157 0.0 1.7 0.00 0.00 0.00 100 1017.4
20260503185030 63 161 0.9 3.5 0.00 0.00 0.00 100 1017.3
20260503183830 64 171 0.9 1.7 0.00 0.00 0.00 100 1017.2
20260503182629 65 177 1.7 1.7 0.00 0.00 0.00 100 1017.1
20260503181428 66 171 0.0 1.7 0.00 0.00 0.00 100 1017.1
20260503180228 67 192 0.9 6.1 0.00 0.00 0.00 100 1017.0
20260503175027 68 209 2.6 7.8 0.00 0.00 0.00 100 1016.9
20260503173826 68 206 7.8 9.6 0.00 0.00 0.00 100 1016.9
20260503172625 69 202 4.3 10.4 0.00 0.00 0.00 100 1016.8
20260503171425 70 226 3.5 10.4 0.00 0.00 0.00 100 1016.8
20260503170224 71 216 6.1 7.8 0.00 0.00 0.00 100 1016.8
20260503150705 75 175 11.3 13.0 0.00 0.00 0.00 100 1017.0